SHT2P EGLL-EGCC

Flight info

Callsign SHT2P
Flight time N/A
Altitude 18000
Route ULTIB T420 ELVOS
Aircraft A320/M-SDE3FGHIRWY/LB1

Departure

Time 2026-05-07 13:17
Airport London Heathrow Airport (EGLL)

Arrival

Time N/A
Airport Manchester Airport (EGCC)
Time Latitude Longitude Altitude Speed Heading
2026-05-07 12:49 51.47233 -0.48585 91 ft 0 kts 270°
2026-05-07 13:10 51.47233 -0.48567 90 ft 4 kts 270°
2026-05-07 13:11 51.47233 -0.48525 89 ft 3 kts 270°
2026-05-07 13:11 51.47234 -0.48492 90 ft 4 kts 237°
2026-05-07 13:11 51.47253 -0.48473 91 ft 3 kts 180°
2026-05-07 13:11 51.47272 -0.48473 86 ft 0 kts 180°
2026-05-07 13:14 51.47251 -0.48473 88 ft 4 kts 180°
2026-05-07 13:14 51.47208 -0.48473 86 ft 8 kts 180°
2026-05-07 13:14 51.47139 -0.48473 86 ft 12 kts 179°
2026-05-07 13:15 51.47042 -0.48471 86 ft 16 kts 179°
2026-05-07 13:15 51.46923 -0.48471 86 ft 18 kts 180°
2026-05-07 13:15 51.46786 -0.48469 86 ft 21 kts 179°
2026-05-07 13:15 51.46631 -0.48467 86 ft 20 kts 180°
2026-05-07 13:16 51.46517 -0.48469 87 ft 12 kts 180°
2026-05-07 13:16 51.46476 -0.48417 89 ft 9 kts 87°
2026-05-07 13:16 51.46478 -0.48262 89 ft 29 kts 90°
2026-05-07 13:16 51.46481 -0.47524 85 ft 99 kts 89°
2026-05-07 13:17 51.46486 -0.46129 90 ft 148 kts 90°
2026-05-07 13:17 51.46487 -0.44350 481 ft 159 kts 90°
2026-05-07 13:17 51.46501 -0.42575 1214 ft 159 kts 89°
2026-05-07 13:17 51.46627 -0.40770 1682 ft 172 kts 71°
2026-05-07 13:18 51.47336 -0.39092 1966 ft 195 kts 46°
2026-05-07 13:18 51.48321 -0.37398 2351 ft 220 kts 47°
2026-05-07 13:18 51.49403 -0.35475 2844 ft 244 kts 48°
2026-05-07 13:18 51.50571 -0.33344 3527 ft 260 kts 49°
2026-05-07 13:19 51.51764 -0.31109 4490 ft 266 kts 50°
2026-05-07 13:19 51.53115 -0.29055 5398 ft 272 kts 28°
2026-05-07 13:19 51.54918 -0.28196 6342 ft 274 kts
2026-05-07 13:19 51.56788 -0.28703 7234 ft 276 kts 336°
2026-05-07 13:20 51.58528 -0.30065 8132 ft 280 kts 332°
2026-05-07 13:20 51.60285 -0.31475 9011 ft 285 kts 333°
2026-05-07 13:20 51.62080 -0.32901 9869 ft 291 kts 333°
2026-05-07 13:20 51.63937 -0.34367 10416 ft 307 kts 333°
2026-05-07 13:21 51.65932 -0.35940 10695 ft 331 kts 333°
2026-05-07 13:21 51.68060 -0.37620 11040 ft 348 kts 333°
2026-05-07 13:21 51.70256 -0.39357 11693 ft 355 kts 333°
2026-05-07 13:21 51.72486 -0.41123 12418 ft 359 kts 333°
2026-05-07 13:22 51.74739 -0.42914 13150 ft 363 kts 333°
2026-05-07 13:22 51.77018 -0.44731 13892 ft 367 kts 333°
2026-05-07 13:22 51.79316 -0.46563 14554 ft 371 kts 333°